CZ-3B DEB, 40193

Orbit data source: Space-Track

CZ-3B DEB, 40193 is space debris in HEO originally from a launch on Mon, 19 Dec 2011 UTC launched from the Xichang Space Center, China (XSC). Debris objects in space refer to the collection of defunct objects orbiting the Earth. Examples of debris include non-operational satellites, rocket bodies, and fragments generated from explosions, collisions, or faulty payload assembly.

Loading next visibility...
Identifier
40193, 2011-077S
Orbit
HEO
Country
Flag of CNCN / PRC
Related business
Manufacturer
CALT
Mission
Spacecraft
Bus & Motor
Unknown
Mass
Unknown
Launch date (UTC)
2011-12-19 (15 years ago)
Launch vehicle
Unknown
Launch site
Xichang Space Center, China (XSC)
Object type
Payload
Rocket body
Debris
Shape & HBR
Unknown shape, 0.2 m
Radar Cross Section
Medium (>0.1 m² and <1 m²)

Expand to show TLE details & history
Last TLE update: 2 days ago

TLE from 2 days ago
0 CZ-3B DEB
1 40193U 11077S   26254.54251830 -.00000267  00000-0  23419-2 0  9997
2 40193  26.7841   8.7933 7416778  13.7937 358.3750  1.86779488 77774
Epoch: 2026-09-11T13:01Z
TLE epoch observation values (Epoch: 2026-09-11T13:01:13.581Z)
Latitude
-0.00015°
Longitude
-177.08479°
Altitude
886.172 km
Speed
9.769 km/s
True Right ascension
00h 35m 08s
True Declination
0° 00' 01"
Sunlit
Object was in full shadow at epoch
Visualization orbit readout
Latitude
Unknown
Longitude
Unknown
Altitude
Unknown
Speed
Unknown
Apparent Right ascension
Unknown
Apparent Declination
Unknown
Sunlit
N/A
Visualization observer readout
Local Sidereal Time
16:28:56
Azimuth
Unknown
Elevation
Unknown
Doppler factor
Unknown
Orbital elements
Apogee altitude
42,136.631 km
Perigee altitude
817.477 km
Semi-major axis
27,855.191 km
Eccentricity
0.74168
Inclination
26.7841°
RAAN
8.7933°
Arg. of periapsis
13.7937°
True anomaly
343.85012°
Mean anomaly
358.375°
Eccentric anomaly
353.74506°
Mean motion
0.46686 °/min
Orbital period
771.11 mins
BSTAR
0.0023419
Loading maneuver chart data...
Computing Atmospheric mass density...
Loading historical data...
Loading historical data...
Loading historical data...
Loading historical data...
Loading historical data...
Loading historical data...
Loading historical data...

Documentation

Showing up to 5 results
|